AEROCUBE 12A (43556 NORAD) Tracking and Keplerian Element Data

This shows tracking and keplerian element data for the satellite.

Feedback or suggestion? Click here.




ElementValue
Catalog43556
NameAEROCUBE 12A
Epoch Orbit17870
Epoch Day269.04869515
Epoch Year2021
RAAN24.4327
Inclination51.642
Eccentricity0.0007544
Argument of Perigee162.4316
Mean Anonmoly197.6928
Mean Motion15.32475881
Decay Rate7.019E-05
L11 43556U 18046C 21269.04869515 .00007019 00000-0 23185-3 0 9999
L22 43556 51.6420 24.4327 0007544 162.4316 197.6928 15.32475881178707

Live tracking and technical data element details for AEROCUBE 12A (NORAD 43556). AEROCUBE 12A can be tracked NOW for your location showing map with azimuth and elevation plus other details from your city location.

Track the satellite on the map from your city or location and see movement details for azimuth, elevation, latitude, longitude, range, height, and movement on the map or in text.







IsCatalogInMostPopularTable: catalog: 43556, numindb: 533
Update: records affected: 1



GetName: 43556 AEROCUBE 12A

Hit Count: updated at: Mon, 27 Sep 2021 00:38:05 GMT